Tracking 19562 objects as of 25-Mar-2019
HD Live streaming from Space Station
objects crossing your sky now

SUPERBIRD 4

Track SUPERBIRD 4 now!
SUPERBIRD 4 is classified as:


NORAD ID: 26095
Int'l Code: 2000-012A
Perigee: 36,159.7 km
Apogee: 36,235.3 km
Inclination: 1.8 °
Period: 1,456.8 minutes
Semi major axis: 42568 km
RCS: 25.1189 m2 (large)
Launch date: February 18, 2000
Source: Japan (JPN)
Launch site: FRENCH GUIANA (FRGUI)

23 Ku-band, 6 Ka-band; Japan, Okinawa; business communications.
aabbcc
Your satellite tracking list
Your tracking list is empty




NASA's NSSDC Master Catalog

Two Line Element Set (TLE):
1 26095U 00012A   19083.83298128 -.00000079  00000-0  00000+0 0  9993
2 26095   1.8101  89.5083 0008878  80.2228  51.5599  0.98848696 69907
Source of the keplerian elements: AFSPC